Location: Daouli
(14.8671°N, 3.2030°W)
Time: 01:38:56
(UTC+00:00)

Cosmos 1953 Rocket - Pass Details

Date: 29 October 2020
Orbit: 605 x 634 km, 82.5° (Epoch: 02 December)

Event Time Altitude Azimuth Distance (km) Brightness Sun altitude
Rises 18:18:40 0° 351° (N) 2,902 7.0 -8.7°
Reaches altitude 10° 18:20:54 10° 349° (NNW) 1,999 6.2 -9.3°
Maximum altitude 18:25:17 67° 267° (W) 682 4.0 -10.3°
Drops below altitude 10° 18:29:43 10° 184° (S) 2,007 6.4 -11.3°
Sets 18:31:58 0° 182° (S) 2,915 7.2 -11.9°
